• In Czech Republic
  • List of Countries
  • For 7 days
  • Water Temperature
  • Satellite Maps
  • Weather Map
  • Weather Widgets
  • user-avatar
    Login

    Hourly Weather Wien

    Today, 22 July, Saturday

    Time Temperature Precipitation Wind Pressure Humidity
    00:00 +21°C° 0 mm 2 mps 742 mmHg 68%
    01:00 +21°C° 0 mm 2 mps 741 mmHg 70%
    02:00 +20°C° 0.1 mm 2 mps 741 mmHg 73%
    03:00 +20°C° 0.1 mm 2 mps 741 mmHg 75%
    04:00 +19°C° 0.1 mm 2 mps 741 mmHg 77%
    05:00 +21°C° 0 mm 2 mps 741 mmHg 73%
    06:00 +23°C° 0 mm 2 mps 742 mmHg 69%
    07:00 +24°C° 0 mm 2 mps 742 mmHg 61%
    08:00 +26°C° 0.2 mm 2 mps 742 mmHg 57%
    09:00 +27°C° 0.2 mm 2 mps 742 mmHg 54%
    10:00 +29°C° 0.2 mm 2 mps 742 mmHg 50%
    11:00 +30°C° 0.1 mm 2 mps 742 mmHg 47%
    12:00 +32°C° 0.1 mm 2 mps 742 mmHg 43%
    13:00 +34°C° 0.1 mm 2 mps 742 mmHg 39%
    14:00 +34°C° 0 mm 2 mps 742 mmHg 39%
    15:00 +34°C° 0 mm 2 mps 742 mmHg 39%
    16:00 +34°C° 0 mm 2 mps 742 mmHg 39%
    17:00 +31°C° 0 mm 2 mps 742 mmHg 44%
    18:00 +30°C° 0 mm 2 mps 741 mmHg 50%
    19:00 +28°C° 0 mm 2 mps 741 mmHg 55%
    20:00 +27°C° 0.7 mm 2 mps 742 mmHg 62%
    21:00 +25°C° 0.7 mm 2 mps 742 mmHg 68%
    22:00 +24°C° 0.7 mm 2 mps 742 mmHg 74%
    23:00 +23°C° 0.5 mm 1 mps 742 mmHg 77%

    Tomorrow, 23 July, Sunday

    Time Temperature Precipitation Wind Pressure Humidity
    00:00 +23°C° 0.5 mm 1 mps 742 mmHg 80%
    01:00 +22°C° 0.5 mm 1 mps 742 mmHg 83%
    02:00 +22°C° 0.4 mm 1 mps 742 mmHg 83%
    03:00 +22°C° 0.4 mm 1 mps 742 mmHg 84%
    04:00 +21°C° 0.4 mm 1 mps 742 mmHg 85%
    05:00 +22°C° 0.5 mm 1 mps 742 mmHg 82%
    06:00 +23°C° 0.5 mm 1 mps 742 mmHg 79%
    07:00 +24°C° 0.5 mm 2 mps 743 mmHg 77%
    08:00 +26°C° 0.3 mm 2 mps 743 mmHg 70%
    09:00 +27°C° 0.3 mm 3 mps 743 mmHg 64%
    10:00 +29°C° 0.3 mm 3 mps 743 mmHg 57%
    11:00 +30°C° 0.1 mm 3 mps 743 mmHg 53%
    12:00 +31°C° 0.1 mm 3 mps 743 mmHg 48%
    13:00 +33°C° 0.1 mm 3 mps 743 mmHg 43%
    14:00 +31°C° 0.1 mm 3 mps 742 mmHg 44%
    15:00 +31°C° 0.1 mm 3 mps 742 mmHg 45%
    16:00 +31°C° 0.1 mm 3 mps 742 mmHg 45%
    17:00 +29°C° 0.2 mm 3 mps 742 mmHg 51%
    18:00 +28°C° 0.2 mm 3 mps 742 mmHg 57%
    19:00 +26°C° 0.2 mm 3 mps 742 mmHg 63%
    20:00 +25°C° 0.3 mm 2 mps 742 mmHg 67%
    21:00 +24°C° 0.3 mm 2 mps 742 mmHg 71%
    22:00 +23°C° 0.3 mm 2 mps 743 mmHg 75%
    23:00 +21°C° 0.3 mm 2 mps 742 mmHg 78%

    Day after tomorrow, 24 July, Monday

    Time Temperature Precipitation Wind Pressure Humidity
    00:00 +20°C° 0.3 mm 2 mps 742 mmHg 81%
    01:00 +20°C° 0.3 mm 2 mps 742 mmHg 83%
    02:00 +19°C° 0 mm 2 mps 742 mmHg 84%
    03:00 +19°C° 0 mm 2 mps 741 mmHg 84%
    04:00 +19°C° 0 mm 2 mps 741 mmHg 84%
    05:00 +19°C° 0.1 mm 2 mps 741 mmHg 81%
    06:00 +20°C° 0.1 mm 2 mps 740 mmHg 78%
    07:00 +20°C° 0.1 mm 2 mps 740 mmHg 75%
    08:00 +21°C° 0.5 mm 2 mps 740 mmHg 72%
    09:00 +23°C° 0.5 mm 2 mps 740 mmHg 69%
    10:00 +24°C° 0.5 mm 2 mps 739 mmHg 66%
    11:00 +25°C° 0.4 mm 2 mps 739 mmHg 62%
    12:00 +26°C° 0.4 mm 2 mps 738 mmHg 58%
    13:00 +27°C° 0.4 mm 2 mps 738 mmHg 53%
    14:00 +27°C° 0.3 mm 2 mps 737 mmHg 56%
    15:00 +26°C° 0.3 mm 2 mps 737 mmHg 58%
    16:00 +26°C° 0.3 mm 2 mps 736 mmHg 61%
    17:00 +24°C° 1.8 mm 3 mps 736 mmHg 68%
    18:00 +22°C° 1.8 mm 3 mps 736 mmHg 76%
    19:00 +20°C° 1.8 mm 4 mps 735 mmHg 84%
    20:00 +20°C° 1.5 mm 5 mps 735 mmHg 85%
    21:00 +19°C° 1.5 mm 6 mps 735 mmHg 86%
    22:00 +17°C° 1.5 mm 6 mps 735 mmHg 87%
    23:00 +17°C° 1.2 mm 6 mps 735 mmHg 87%

    25 July, Tuesday

    Time Temperature Precipitation Wind Pressure Humidity
    00:00 +17°C° 1.2 mm 6 mps 735 mmHg 87%
    01:00 +17°C° 1.2 mm 7 mps 735 mmHg 87%
    02:00 +16°C° 0.5 mm 7 mps 735 mmHg 86%
    03:00 +16°C° 0.5 mm 7 mps 735 mmHg 86%
    04:00 +16°C° 0.5 mm 7 mps 735 mmHg 85%
    05:00 +16°C° 0.1 mm 8 mps 735 mmHg 83%
    06:00 +16°C° 0.1 mm 8 mps 735 mmHg 80%
    07:00 +16°C° 0.1 mm 8 mps 735 mmHg 78%
    08:00 +16°C° 0.1 mm 8 mps 735 mmHg 75%
    09:00 +16°C° 0.1 mm 8 mps 735 mmHg 72%
    10:00 +17°C° 0.1 mm 8 mps 735 mmHg 70%
    11:00 +17°C° 0.1 mm 8 mps 735 mmHg 69%
    12:00 +17°C° 0.1 mm 7 mps 735 mmHg 69%
    13:00 +17°C° 0.1 mm 7 mps 735 mmHg 69%
    14:00 +18°C° 0.1 mm 7 mps 735 mmHg 66%
    15:00 +18°C° 0.1 mm 7 mps 735 mmHg 64%
    16:00 +20°C° 0.1 mm 7 mps 735 mmHg 61%
    17:00 +19°C° 0 mm 6 mps 735 mmHg 64%
    18:00 +17°C° 0 mm 5 mps 735 mmHg 67%
    19:00 +18°C° 0 mm 4 mps 735 mmHg 69%
    20:00 +17°C° 0 mm 4 mps 735 mmHg 72%
    21:00 +15°C° 0 mm 4 mps 735 mmHg 76%
    22:00 +14°C° 0 mm 4 mps 735 mmHg 79%
    23:00 +14°C° 0 mm 4 mps 736 mmHg 79%

    26 July, Wednesday

    Time Temperature Precipitation Wind Pressure Humidity
    00:00 +14°C° 0 mm 5 mps 736 mmHg 79%
    01:00 +14°C° 0 mm 5 mps 736 mmHg 79%
    02:00 +14°C° 0 mm 5 mps 736 mmHg 79%
    03:00 +13°C° 0 mm 4 mps 736 mmHg 79%
    04:00 +13°C° 0 mm 4 mps 736 mmHg 79%
    05:00 +14°C° 0 mm 5 mps 736 mmHg 74%
    06:00 +15°C° 0 mm 6 mps 736 mmHg 69%
    07:00 +16°C° 0 mm 6 mps 736 mmHg 65%
    08:00 +18°C° 0 mm 7 mps 736 mmHg 60%
    09:00 +20°C° 0 mm 7 mps 736 mmHg 56%
    10:00 +21°C° 0 mm 7 mps 737 mmHg 52%
    11:00 +22°C° 0 mm 7 mps 736 mmHg 50%
    12:00 +23°C° 0 mm 7 mps 736 mmHg 49%
    13:00 +23°C° 0 mm 7 mps 736 mmHg 47%
    14:00 +23°C° 0 mm 6 mps 736 mmHg 47%
    15:00 +23°C° 0 mm 6 mps 736 mmHg 48%
    16:00 +23°C° 0 mm 6 mps 736 mmHg 48%
    17:00 +22°C° 0 mm 5 mps 737 mmHg 53%
    18:00 +21°C° 0 mm 5 mps 737 mmHg 58%
    19:00 +20°C° 0 mm 5 mps 737 mmHg 64%
    20:00 +19°C° 0 mm 5 mps 737 mmHg 66%
    21:00 +17°C° 0 mm 5 mps 738 mmHg 69%
    22:00 +16°C° 0 mm 5 mps 738 mmHg 72%
    23:00 +16°C° 0 mm 5 mps 738 mmHg 72%

    27 July, Thursday

    Time Temperature Precipitation Wind Pressure Humidity
    00:00 +15°C° 0 mm 5 mps 738 mmHg 72%
    01:00 +15°C° 0 mm 5 mps 738 mmHg 72%
    02:00 +15°C° 0.1 mm 5 mps 738 mmHg 72%
    03:00 +16°C° 0.1 mm 5 mps 738 mmHg 72%
    04:00 +16°C° 0.1 mm 5 mps 738 mmHg 72%
    05:00 +16°C° 0.9 mm 5 mps 738 mmHg 76%
    06:00 +16°C° 0.9 mm 5 mps 739 mmHg 80%
    07:00 +16°C° 0.9 mm 5 mps 739 mmHg 84%
    08:00 +16°C° 1.4 mm 5 mps 739 mmHg 85%
    09:00 +16°C° 1.4 mm 5 mps 740 mmHg 86%
    10:00 +16°C° 1.4 mm 5 mps 740 mmHg 88%
    11:00 +16°C° 0.6 mm 5 mps 740 mmHg 86%
    12:00 +17°C° 0.6 mm 5 mps 740 mmHg 85%
    13:00 +17°C° 0.6 mm 5 mps 741 mmHg 84%
    14:00 +19°C° 0.1 mm 5 mps 741 mmHg 79%
    15:00 +20°C° 0.1 mm 5 mps 741 mmHg 74%
    16:00 +21°C° 0.1 mm 5 mps 741 mmHg 69%
    17:00 +21°C° 0 mm 4 mps 741 mmHg 72%
    18:00 +20°C° 0 mm 3 mps 741 mmHg 74%
    19:00 +20°C° 0 mm 2 mps 741 mmHg 77%
    20:00 +19°C° 0 mm 2 mps 742 mmHg 80%
    21:00 +18°C° 0 mm 2 mps 742 mmHg 83%
    22:00 +17°C° 0 mm 2 mps 742 mmHg 86%
    23:00 +17°C° 0 mm 2 mps 743 mmHg 86%
    Show more